Weather Roundup
Issued by NWS Chicago, IL

Home | Current Version | Previous Version | Graphics & Text | Print | Product List | Glossary On
Versions: 1 2 3 4 5 6 7 8 9 10 11 12 13 14 15 16 17 18 19 20 21 22 23 24 25 26 27 28 29 30 31 32 33 34 35 36 37 38 39 40 41 42 43 44 45 46 47 48 49 50
000
NZUS59 KLOT 232112
HRRLOT

CHICAGO AREA WEATHER ROUNDUP
NATIONAL WEATHER SERVICE CHICAGO/ROMEOVILLE IL
300 PM CST THU FEB 23 2017

NOTE: "FAIR" INDICATES FEW OR NO CLOUDS BELOW 12,000 FEET WITH NO
SIGNIFICANT WEATHER AND/OR OBSTRUCTIONS TO VISIBILITY.

* THESE STATIONS ARE NOT UNDER NWS QUALITY CONTROL. THEY ALSO MAY NOT
  REPORT WEATHER SUCH AS PRECIPITATION OR FOG.

ILZ005-006-012>014-019>023-232200-
NORTHEAST ILLINOIS

CITY           SKY/WX    TMP DP  RH WIND       PRES   REMARKS
OHARE          CLOUDY    42  35  76 NE13      29.81S
MIDWAY         CLOUDY    42  35  76 NE18      29.81F
AURORA         CLOUDY    44  36  73 NE17      29.77F
LANSING*       CLOUDY    42  39  91 NE10      29.81F
JOLIET*        CLOUDY    47  40  78 NE10      29.79R
WAUKEGAN       CLOUDY    37  33  85 NE13      29.83F
DUPAGE AIRPORT CLOUDY    42  34  73 NE18G26   29.76F
WHEELING       CLOUDY    39  33  79 N14       29.84S
KANKAKEE*      CLOUDY    47  40  76 NE12      29.77S
MORRIS*        CLOUDY    47  40  75 NE10G16   29.75R
LEWIS AIRPORT* CLOUDY    43  40  89 NE17      29.79S
NORTHERLY ISL    N/A     39  36  89 N12         N/A
$$

WIZ051-052-058>065-066-070>072-232200-
SOUTHEAST WISCONSIN

CITY           SKY/WX    TMP DP  RH WIND       PRES   REMARKS
MILWAUKEE      CLOUDY    38  31  76 NE16      29.86R
KENOSHA*       CLOUDY    38  32  79 NE12      29.84F
RACINE*        CLOUDY    37  31  78 NE18      29.86S
WAUKESHA       CLOUDY    36  30  80 E10       29.86S
WEST BEND      CLOUDY    37  32  81 E8        29.86R
$$

INZ001>003-010>013-019-020-232200-
NORTHWEST INDIANA

CITY           SKY/WX    TMP DP  RH WIND       PRES   REMARKS
GARY*          CLOUDY    41  37  87 N12G23    29.82S
MICHIGAN CITY* NOT AVBL
RENSSELAER*    NOT AVBL
VALPARAISO     CLOUDY    46  40  79 N12G17    29.79S
$$

LMZ740>746-232200-
SOUTHERN LAKE MICHIGAN

STATION/POSITION TIME  SKY/WX   TEMP WIND        PRES    VSBY
                                AIR  DIR/SP/G
                 (UTC)          (F)  (DEG/KT/KT) (MB)    (MI)
HARRISON CRIB    2040            38   20/  8/  9   N/A
BURNHAM HARBOR   2100            39   10/  7/ 13   N/A
CALUMET HARBOR   2048            38   10/ 10/ 14 1009.6R
BURNS HARBOR     2040            38   50/  6/ 10 1010.8R
MICHIGAN CITY    2040            36   20/ 12/ 13   N/A
$$

ABBREVIATIONS USED IN REMARKS
   TC - TEMPERATURE IN CELSIUS
  WCI - WIND CHILL INDEX
   HX - HEAT INDEX
  VSB - VISIBILITY
$$




USA.gov is the U.S. government's official web portal to all federal, state and local government web resources and services.